FW8568 Weather Reports


Display with metric or nautical units.
time (UTC)temp
F
wind
direction
speed
MPH
gust
MPH
rain 1hr
in
rain 24hr
in
rain mn
in
humidity
%
barometer
mb
20260505192816 78 99 3.0 4.0 0.00 0.00 0.00 31 1010.7
20260505192315 78 208 1.0 4.0 0.00 0.00 0.00 32 1010.6
20260505191812 78 70 1.0 4.0 0.00 0.00 0.00 32 1010.9
20260505191310 78 125 5.0 6.0 0.00 0.00 0.00 31 1011.2
20260505190806 78 83 2.0 5.0 0.00 0.00 0.00 31 1011.0
20260505190302 77 16 2.0 4.0 0.00 0.00 0.00 33 1011.0
20260505185758 77 175 1.0 3.0 0.00 0.00 0.00 34 1010.9
20260505185254 77 46 2.0 4.0 0.00 0.00 0.00 34 1011.2
20260505184750 77 351 2.0 4.0 0.00 0.00 0.00 33 1011.2
20260505184248 77 344 3.0 4.0 0.00 0.00 0.00 34 1011.3
20260505183744 76 32 2.0 5.0 0.00 0.00 0.00 35 1011.3
20260505183242 76 34 0.0 3.0 0.00 0.00 0.00 35 1011.4
20260505182738 75 65 2.0 7.0 0.00 0.00 0.00 36 1011.4
20260505182235 75 109 1.0 2.0 0.00 0.00 0.00 37 1011.4
20260505181731 73 284 0.0 2.0 0.00 0.00 0.00 39 1011.7
20260505181229 73 135 1.0 4.0 0.00 0.00 0.00 39 1011.7
20260505180725 74 121 5.0 5.0 0.00 0.00 0.00 40 1011.6
20260505180222 74 350 0.0 4.0 0.00 0.00 0.00 42 1011.6
20260505175718 73 352 0.0 1.0 0.00 0.00 0.00 42 1011.5
20260505175215 73 41 0.0 4.0 0.00 0.00 0.00 41 1011.5
20260505174712 74 143 1.0 3.0 0.00 0.00 0.00 40 1011.5
20260505174209 76 132 4.0 4.0 0.00 0.00 0.00 39 1011.5
20260505173704 74 257 0.0 3.0 0.00 0.00 0.00 42 1011.4
20260505173201 75 152 1.0 2.0 0.00 0.00 0.00 40 1011.4
20260505172659 74 330 0.0 2.0 0.00 0.00 0.00 42 1011.5
20260505172155 73 80 2.0 3.0 0.00 0.00 0.00 41 1011.5
20260505171655 73 77 0.0 5.0 0.00 0.00 0.00 42 1011.3
20260505171152 73 57 1.0 2.0 0.00 0.00 0.00 42 1011.3
20260505170649 73 126 0.0 4.0 0.00 0.00 0.00 44 1011.5
20260505170146 72 99 2.0 5.0 0.00 0.00 0.00 44 1011.5
20260505165641 73 82 1.0 3.0 0.00 0.00 0.00 43 1011.8
20260505165137 73 118 2.0 5.0 0.00 0.00 0.00 43 1011.6
20260505164632 72 86 2.0 3.0 0.00 0.00 0.00 45 1011.6
20260505164130 71 107 2.0 3.0 0.00 0.00 0.00 46 1011.5
20260505163628 72 114 5.0 5.0 0.00 0.00 0.00 44 1011.8
20260505163126 71 293 1.0 5.0 0.00 0.00 0.00 46 1011.7
20260505162623 70 126 2.0 3.0 0.00 0.00 0.00 46 1011.7
20260505162121 69 57 0.0 3.0 0.00 0.00 0.00 47 1011.6
20260505161617 68 144 2.0 3.0 0.00 0.00 0.00 48 1011.7
20260505161115 68 29 1.0 3.0 0.00 0.00 0.00 49 1011.9
20260505160613 69 94 1.0 5.0 0.00 0.00 0.00 48 1011.5
20260505160110 69 89 1.0 3.0 0.00 0.00 0.00 50 1011.7
20260505153049 68 129 2.0 3.0 0.00 0.00 0.00 51 1011.8
20260505152546 68 145 1.0 4.0 0.00 0.00 0.00 52 1011.7
20260505152042 68 130 3.0 4.0 0.00 0.00 0.00 53 1011.9
20260505151537 69 115 3.0 5.0 0.00 0.00 0.00 52 1011.5
20260505151035 69 101 6.0 7.0 0.00 0.00 0.00 52 1011.5
20260505150531 70 351 0.0 5.0 0.00 0.00 0.00 52 1011.5
20260505140456 66 100 1.0 2.0 0.00 0.00 0.00 56 1011.6
20260505124909 66 272 0.0 1.0 0.00 0.00 0.00 55 1010.5
20260505124406 66 324 0.0 2.0 0.00 0.00 0.00 55 1010.4
20260505123902 65 324 0.0 1.0 0.00 0.00 0.00 55 1010.4
20260505123359 65 289 1.0 2.0 0.00 0.00 0.00 56 1010.4
20260505122855 65 345 0.0 2.0 0.00 0.00 0.00 55 1010.4
20260505122352 65 80 0.0 2.0 0.00 0.00 0.00 55 1010.3
20260505121849 65 329 1.0 1.0 0.00 0.00 0.00 55 1010.2
20260505121346 65 291 1.0 2.0 0.00 0.00 0.00 55 1010.4
20260505120842 65 157 0.0 1.0 0.00 0.00 0.00 55 1010.3
20260505120338 65 161 0.0 1.0 0.00 0.00 0.00 55 1010.3
20260505115837 66 264 0.0 1.0 0.00 0.00 0.00 54 1010.1
20260505115334 66 284 1.0 2.0 0.00 0.00 0.00 55 1010.3
20260505114832 66 330 0.0 2.0 0.00 0.00 0.00 55 1010.1
20260505114328 66 346 0.0 2.0 0.00 0.00 0.00 55 1010.3
20260505113825 66 122 0.0 1.0 0.00 0.00 0.00 54 1010.0
20260505113322 66 121 1.0 2.0 0.00 0.00 0.00 54 1010.1
20260505112817 66 291 1.0 2.0 0.00 0.00 0.00 53 1010.0
20260505112315 66 256 0.0 1.0 0.00 0.00 0.00 54 1010.2
20260505111810 66 334 1.0 2.0 0.00 0.00 0.00 52 1010.3
20260505111306 67 268 0.0 1.0 0.00 0.00 0.00 52 1010.0
20260505110802 67 104 0.0 2.0 0.00 0.00 0.00 52 1010.0
20260505110300 67 305 0.0 1.0 0.00 0.00 0.00 52 1009.7
20260505101734 68 108 1.0 2.0 0.00 0.00 0.00 49 1010.8
20260505101230 68 125 2.0 3.0 0.00 0.00 0.00 49 1010.8
20260505100726 68 53 0.0 2.0 0.00 0.00 0.00 48 1010.4
20260505100223 69 272 1.0 2.0 0.00 0.00 0.00 48 1010.5
20260505095718 69 137 1.0 3.0 0.00 0.00 0.00 46 1010.6
20260505095217 69 345 0.0 3.0 0.00 0.00 0.00 46 1010.5
20260505094712 69 159 1.0 3.0 0.00 0.00 0.00 45 1010.7
20260505094208 69 273 0.0 2.0 0.00 0.00 0.00 46 1010.9
20260505093705 69 182 0.0 3.0 0.00 0.00 0.00 45 1010.8
20260505093203 69 337 0.0 2.0 0.00 0.00 0.00 45 1010.9
20260505092659 69 129 0.0 3.0 0.00 0.00 0.00 45 1011.0
20260505092158 69 86 3.0 3.0 0.00 0.00 0.00 45 1010.7
20260505091654 69 150 0.0 2.0 0.00 0.00 0.00 44 1011.2
20260505091152 69 264 0.0 3.0 0.00 0.00 0.00 46 1011.2
20260505090650 70 308 0.0 2.0 0.00 0.00 0.00 45 1010.9
20260505090148 70 284 0.0 2.0 0.00 0.00 0.00 44 1010.9
20260505085645 70 95 0.0 2.0 0.00 0.00 0.00 44 1011.3
20260505085143 70 356 1.0 3.0 0.00 0.00 0.00 44 1011.2
20260505084640 70 314 0.0 2.0 0.00 0.00 0.00 43 1011.3
20260505084139 70 167 0.0 2.0 0.00 0.00 0.00 42 1011.2
20260505083636 70 15 0.0 2.0 0.00 0.00 0.00 43 1011.3
20260505083132 70 215 1.0 2.0 0.00 0.00 0.00 42 1011.3
20260505082456 70 156 0.0 1.0 0.00 0.00 0.00 40 1011.3
20260505081953 70 156 0.0 1.0 0.00 0.00 0.00 40 1011.3
20260505081450 70 330 0.0 1.0 0.00 0.00 0.00 41 1011.5
20260505080946 70 301 0.0 0.0 0.00 0.00 0.00 40 1011.7
20260505080442 70 271 0.0 1.0 0.00 0.00 0.00 40 1011.5
20260505075938 71 280 1.0 2.0 0.00 0.00 0.00 39 1011.5
20260505075435 71 284 0.0 1.0 0.00 0.00 0.00 39 1011.4
20260505074932 71 52 0.0 1.0 0.00 0.00 0.00 39 1011.6
20260505074430 71 221 0.0 1.0 0.00 0.00 0.00 40 1011.5
20260505073927 71 305 0.0 1.0 0.00 0.00 0.00 38 1011.5
20260505073424 71 312 0.0 0.0 0.00 0.00 0.00 40 1011.5
20260505072921 71 342 0.0 0.0 0.00 0.00 0.00 38 1011.4
20260505072418 71 245 0.0 0.0 0.00 0.00 0.00 39 1011.4
20260505071914 71 284 0.0 1.0 0.00 0.00 0.00 39 1011.3
20260505071410 71 250 0.0 1.0 0.00 0.00 0.00 38 1011.5
20260505070908 71 284 0.0 0.0 0.00 0.00 0.00 37 1011.5
20260505070404 71 312 0.0 1.0 0.00 0.00 0.00 38 1011.4
20260505065900 71 104 0.0 0.0 0.00 0.00 0.00 40 1011.4
20260505065357 71 118 0.0 1.0 0.00 0.00 0.00 40 1011.3
20260505064854 71 111 0.0 1.0 0.00 0.00 0.00 43 1011.3
20260505064351 71 128 0.0 1.0 0.00 0.00 0.00 43 1011.5
20260505063849 71 113 0.0 1.0 0.00 0.00 0.00 43 1011.4
20260505063344 71 284 0.0 1.0 0.00 0.00 0.00 43 1011.2
20260505062841 71 327 0.0 0.0 0.00 0.00 0.00 43 1011.0
20260505062339 71 245 0.0 0.0 0.00 0.00 0.00 43 1011.0
20260505061836 71 324 0.0 0.0 0.00 0.00 0.00 42 1010.9
20260505061334 72 284 0.0 0.0 0.00 0.00 0.00 42 1010.9
20260505060831 72 220 0.0 0.0 0.00 0.00 0.00 42 1010.8
20260505060328 72 77 0.0 0.0 0.00 0.00 0.00 43 1011.0
20260505055824 72 77 0.0 0.0 0.00 0.00 0.00 43 1011.0
20260505055320 71 158 0.0 1.0 0.00 0.00 0.00 43 1010.7
20260505054817 71 245 0.0 1.0 0.00 0.00 0.00 44 1010.7
20260505054314 71 305 0.0 1.0 0.00 0.00 0.00 44 1010.7
20260505053813 71 227 0.0 1.0 0.00 0.00 0.00 43 1010.9
20260505053309 72 261 0.0 1.0 0.00 0.00 0.00 43 1010.7
20260505052806 72 324 0.0 0.0 0.00 0.00 0.00 44 1011.3
20260505052304 72 271 0.0 0.0 0.00 0.00 0.00 44 1011.0
20260505051800 72 324 0.0 0.0 0.00 0.00 0.00 43 1011.2
20260505051258 72 264 0.0 0.0 0.00 0.00 0.00 43 1011.3
20260505050755 72 235 0.0 0.0 0.00 0.00 0.00 43 1011.4
20260505050254 72 261 0.0 1.0 0.00 0.00 0.00 43 1011.3
20260505041729 73 324 0.0 0.0 0.00 0.00 0.00 41 1011.5
20260505041226 73 245 0.0 0.0 0.00 0.00 0.00 41 1011.4
20260505040723 73 352 0.0 2.0 0.00 0.00 0.00 40 1011.0
20260505040220 73 210 0.0 1.0 0.00 0.00 0.00 41 1011.4
20260505035717 73 77 0.0 1.0 0.00 0.00 0.00 40 1011.4
20260505035213 73 104 0.0 1.0 0.00 0.00 0.00 41 1011.5
20260505034710 73 284 0.0 0.0 0.00 0.00 0.00 42 1011.5
20260505034207 73 324 0.0 0.0 0.00 0.00 0.00 42 1010.9
20260505033703 73 125 0.0 0.0 0.00 0.00 0.00 43 1011.0
20260505033202 74 284 0.0 2.0 0.00 0.00 0.00 43 1010.9
20260505032659 74 135 0.0 2.0 0.00 0.00 0.00 43 1010.6
20260505032155 74 168 0.0 3.0 0.00 0.00 0.00 44 1010.6
20260505031653 74 104 0.0 1.0 0.00 0.00 0.00 43 1010.5
20260505031149 74 48 0.0 2.0 0.00 0.00 0.00 43 1010.4
20260505030646 74 86 2.0 3.0 0.00 0.00 0.00 43 1010.6
20260505030141 74 195 0.0 3.0 0.00 0.00 0.00 43 1010.6
20260505025638 74 157 0.0 2.0 0.00 0.00 0.00 43 1010.2
20260505025136 74 132 0.0 1.0 0.00 0.00 0.00 43 1010.3
20260505024634 74 93 2.0 2.0 0.00 0.00 0.00 43 1010.3
20260505024130 74 134 0.0 3.0 0.00 0.00 0.00 44 1010.1
20260505023628 74 134 0.0 2.0 0.00 0.00 0.00 43 1010.3
20260505023125 75 102 2.0 2.0 0.00 0.00 0.00 43 1010.3
20260505022623 75 125 2.0 2.0 0.00 0.00 0.00 43 1010.3
20260505022119 75 178 0.0 2.0 0.00 0.00 0.00 43 1010.5
20260505021616 75 142 1.0 2.0 0.00 0.00 0.00 43 1010.3
20260505021113 75 45 2.0 2.0 0.00 0.00 0.00 43 1010.2
20260505020608 75 127 3.0 4.0 0.00 0.00 0.00 42 1010.5
20260505020104 75 144 0.0 3.0 0.00 0.00 0.00 42 1010.1
20260505015602 75 97 1.0 3.0 0.00 0.00 0.00 42 1010.3
20260505015059 75 142 1.0 4.0 0.00 0.00 0.00 42 1010.2
20260505014555 75 37 0.0 4.0 0.00 0.00 0.00 42 1010.2
20260505014052 76 95 2.0 4.0 0.00 0.00 0.00 42 1010.0
20260505013550 76 102 3.0 6.0 0.00 0.00 0.00 41 1010.2
20260505013047 76 23 0.0 3.0 0.00 0.00 0.00 42 1010.3
20260505012545 76 104 0.0 4.0 0.00 0.00 0.00 41 1009.9
20260505012042 76 86 3.0 5.0 0.00 0.00 0.00 41 1009.9
20260505011537 76 108 2.0 6.0 0.00 0.00 0.00 40 1010.0
20260505011034 76 118 3.0 5.0 0.00 0.00 0.00 41 1010.2
20260505010530 76 74 1.0 8.0 0.00 0.00 0.00 40 1009.9
20260505010027 76 21 2.0 5.0 0.00 0.00 0.00 40 1009.9
20260505005523 77 87 2.0 5.0 0.00 0.00 0.00 40 1010.0
20260505005021 77 106 2.0 3.0 0.00 0.00 0.00 39 1010.0
20260505004517 77 88 2.0 5.0 0.00 0.00 0.00 39 1010.3
20260505004014 78 100 2.0 3.0 0.00 0.00 0.00 38 1010.1
20260505003511 78 90 1.0 6.0 0.00 0.00 0.00 37 1010.4
20260505003008 78 126 2.0 5.0 0.00 0.00 0.00 37 1010.4
20260505002503 78 99 3.0 5.0 0.00 0.00 0.00 38 1010.3
20260505002002 78 44 1.0 6.0 0.00 0.00 0.00 37 1010.4
20260505001459 79 43 2.0 4.0 0.00 0.00 0.00 35 1010.3
20260505000956 79 96 2.0 4.0 0.00 0.00 0.00 35 1010.2
20260505000454 79 91 2.0 4.0 0.00 0.00 0.00 35 1010.4
20260504235951 79 164 0.0 2.0 0.00 0.00 0.00 35 1010.3
20260504235448 79 132 0.0 2.0 0.00 0.00 0.00 35 1010.4
20260504234944 79 135 1.0 3.0 0.00 0.00 0.00 35 1010.3
20260504234442 78 115 2.0 4.0 0.00 0.00 0.00 37 1010.4
20260504233938 78 122 2.0 4.0 0.00 0.00 0.00 36 1010.2
20260504233434 78 124 2.0 3.0 0.00 0.00 0.00 37 1010.3
20260504232931 78 85 5.0 5.0 0.00 0.00 0.00 36 1010.4
20260504232428 79 144 3.0 5.0 0.00 0.00 0.00 37 1010.3
20260504231925 79 104 0.0 5.0 0.00 0.00 0.00 37 1010.5
20260504231421 78 104 4.0 4.0 0.00 0.00 0.00 37 1010.7
20260504230918 77 156 1.0 4.0 0.00 0.00 0.00 39 1010.5
20260504230415 77 118 1.0 5.0 0.00 0.00 0.00 39 1010.5
20260504225914 78 115 3.0 4.0 0.00 0.00 0.00 38 1010.5
20260504225410 78 147 3.0 7.0 0.00 0.00 0.00 37 1010.7
20260504224908 78 135 3.0 7.0 0.00 0.00 0.00 39 1010.6
20260504224404 78 112 2.0 4.0 0.00 0.00 0.00 38 1010.8
20260504223901 78 108 2.0 4.0 0.00 0.00 0.00 38 1010.7
20260504223356 78 93 1.0 4.0 0.00 0.00 0.00 37 1010.6
20260504222853 78 106 1.0 3.0 0.00 0.00 0.00 37 1010.7
20260504222350 78 131 1.0 3.0 0.00 0.00 0.00 38 1010.8
20260504221848 77 85 2.0 3.0 0.00 0.00 0.00 39 1010.9
20260504221344 78 76 2.0 5.0 0.00 0.00 0.00 37 1011.2
20260504220842 78 14 0.0 4.0 0.00 0.00 0.00 39 1010.8
20260504220338 77 90 3.0 5.0 0.00 0.00 0.00 40 1011.2
20260504215836 77 96 1.0 5.0 0.00 0.00 0.00 39 1011.4
20260504215332 77 78 2.0 4.0 0.00 0.00 0.00 40 1011.5
20260504214828 77 122 2.0 5.0 0.00 0.00 0.00 40 1011.2
20260504214325 77 109 3.0 4.0 0.00 0.00 0.00 40 1011.3
20260504213822 76 86 2.0 5.0 0.00 0.00 0.00 40 1011.5
20260504213318 76 175 0.0 3.0 0.00 0.00 0.00 42 1011.8
20260504212815 77 40 1.0 4.0 0.00 0.00 0.00 41 1011.8
20260504212311 76 92 2.0 6.0 0.00 0.00 0.00 42 1011.9
20260504211809 76 104 3.0 4.0 0.00 0.00 0.00 41 1011.7
20260504211305 75 120 2.0 4.0 0.00 0.00 0.00 42 1012.0
20260504210803 75 79 2.0 5.0 0.00 0.00 0.00 43 1011.8
20260504210259 75 66 0.0 3.0 0.00 0.00 0.00 43 1012.0
20260504205757 75 58 1.0 6.0 0.00 0.00 0.00 42 1012.0
20260504205254 75 86 2.0 4.0 0.00 0.00 0.00 43 1012.1
20260504204752 75 139 3.0 6.0 0.00 0.00 0.00 43 1012.2
20260504204250 75 112 2.0 5.0 0.00 0.00 0.00 43 1012.2
20260504203749 75 99 3.0 4.0 0.00 0.00 0.00 42 1012.2
20260504203246 75 106 3.0 4.0 0.00 0.00 0.00 42 1012.4
20260504202741 75 323 1.0 6.0 0.00 0.00 0.00 42 1012.5
20260504202239 76 103 2.0 6.0 0.00 0.00 0.00 41 1012.4
20260504201735 76 86 2.0 6.0 0.00 0.00 0.00 41 1012.4
20260504201232 75 100 2.0 6.0 0.00 0.00 0.00 41 1012.5
20260504200730 75 113 3.0 5.0 0.00 0.00 0.00 41 1012.3
20260504200226 75 125 3.0 6.0 0.00 0.00 0.00 41 1012.3
20260504195723 75 113 2.0 5.0 0.00 0.00 0.00 42 1012.4
20260504195219 75 103 2.0 5.0 0.00 0.00 0.00 42 1012.4
20260504194716 75 119 3.0 6.0 0.00 0.00 0.00 42 1012.3
20260504194212 75 79 2.0 5.0 0.00 0.00 0.00 41 1012.3
20260504193708 75 120 2.0 3.0 0.00 0.00 0.00 42 1012.5
20260504193206 75 117 2.0 3.0 0.00 0.00 0.00 43 1012.4